Powrót do katalogu

KUIPER-00388

AktywnyŁącznośćLEO
NORAD 68922·PAYLOAD·🇺🇸 United States

Wystrzelony Apr 30, 2026 z Guiana Space Centre

Loading…

Następne Przeloty (najbliższe 24 godziny)

TLE

ŚwieżeSource: CelesTrak SupGP

Epoka: Sep 14, 2026, 21:00 UTC

1 68922C 26098D   26257.87546296  .00006692  00000+0  87604-3 0  2578
2 68922  51.9018  26.7160 0000481 107.9170  56.2371 14.79925252    14

Śledź KUIPER-00388 w czasie rzeczywistym z AllMySat

Download on the App Store